Theta_e
297 299 301 306 310 320 320 320 320 318 316 315 313 310 308 306 305 304 301 300 298 296 295 293 292 293 292 292 292 292 292 293 291 288 288 287 285 283 284 285 285 284 283
295 296 299 303 308 313 319 319 315 311 309 308 307 306 306 303 301 299 297 295 294 292 291 291 290 290 289 289 288 287 286 287 287 284 285 284 284 283 283 282 282 282 280
293 295 297 301 306 307 311 315 309 306 306 306 303 301 300 299 298 296 294 293 291 290 289 288 287 287 285 285 285 284 284 285 285 283 282 283 283 281 280 280 279 279 280
291 293 294 295 298 305 305 305 305 307 305 303 303 301 299 297 295 293 291 289 288 287 287 286 286 285 284 284 283 283 283 283 283 282 281 281 280 280 279 277 277 278 277
289 290 290 291 293 296 298 298 295 295 297 300 294 293 293 292 291 288 287 286 285 284 284 285 285 284 286 285 283 283 283 282 282 280 279 278 277 277 276 277 276 275 276
288 288 288 288 288 289 289 290 291 288 287 288 288 288 287 288 289 288 286 284 284 283 282 283 284 284 286 286 286 285 284 281 280 278 277 277 276 276 276 274 273 273 271
286 286 286 286 285 285 286 287 286 286 286 286 286 286 285 286 288 287 285 283 282 282 282 281 282 282 283 282 283 283 282 282 281 279 276 276 274 274 274 273 272 271 271
285 285 285 284 284 285 285 285 285 286 286 286 285 285 284 285 287 286 285 283 282 282 282 281 280 279 281 279 278 278 277 278 278 278 276 275 274 274 273 273 271 270 271
284 284 284 284 284 284 284 284 285 285 285 284 284 284 284 284 286 286 283 282 281 281 281 281 280 280 282 281 278 276 275 276 281 280 279 279 277 276 274 271 268 264 263
283 283 284 284 283 283 283 283 284 284 283 284 283 284 284 283 286 285 283 282 280 279 279 280 281 280 282 281 278 275 273 273 274 273 272 273 272 272 273 270 269 264 264
282 282 282 282 282 283 283 283 283 283 282 282 282 282 282 283 284 285 284 281 280 279 279 279 280 282 281 280 278 275 273 274 274 271 270 269 269 268 268 268 268 267 265
281 281 281 281 282 282 281 281 281 281 280 280 280 280 281 282 284 285 284 283 282 278 278 279 279 281 280 279 277 277 275 271 268 267 267 266 266 266 266 267 266 266 267
280 279 279 280 281 281 280 280 279 280 280 279 279 279 279 280 282 285 284 284 282 278 278 280 281 280 279 277 276 273 270 268 266 265 265 265 265 266 265 265 265 264 265
279 279 279 279 279 279 280 280 279 279 279 279 278 278 278 278 279 280 281 280 279 279 280 277 277 275 275 272 270 269 268 267 266 265 264 264 265 263 262 263 261 261 257
278 278 278 278 278 278 278 279 279 279 281 279 279 278 277 276 277 280 278 276 275 276 272 270 269 268 267 267 266 266 266 265 264 264 262 262 262 262 262 261 260 256 254
277 277 276 276 275 275 276 276 282 282 283 282 282 279 277 280 282 282 280 279 279 276 266 265 266 266 266 265 264 263 263 262 262 261 260 259 259 259 259 259 258 253 252
277 275 274 274 273 273 273 275 273 275 282 283 283 282 281 282 283 282 281 280 279 272 262 263 265 265 265 264 263 262 260 261 260 258 258 258 259 257 255 255 255 255 252
266 268 269 268 268 267 267 267 269 270 269 268 280 280 282 283 283 282 281 278 271 264 261 262 263 262 261 260 259 258 257 257 256 255 254 252 251 251 250 250 252 249 249
265 265 265 264 264 265 265 264 264 264 265 266 266 276 275 283 283 282 280 264 261 261 261 260 260 260 260 258 256 256 257 257 256 253 251 250 249 248 247 249 250 252 251
263 265 265 265 264 264 264 264 262 261 263 265 266 270 268 276 276 271 269 268 267 265 263 260 257 256 255 255 254 255 253 254 254 254 249 248 247 247 248 247 247 248 247
265 263 265 263 264 263 262 262 262 263 264 266 267 267 275 276 273 268 266 263 263 262 258 257 254 253 254 254 254 254 254 254 250 249 247 246 244 246 246 248 247 246 246
267 266 264 264 262 263 264 264 264 264 263 263 261 263 279 263 266 268 267 264 259 256 257 257 255 256 255 257 257 254 254 253 249 246 246 246 246 245 245 246 245 246 246
264 263 262 260 262 262 261 260 261 262 261 261 262 262 263 271 269 267 265 258 254 254 253 256 256 254 256 257 256 255 254 250 249 247 246 246 246 245 245 245 246 245 245
268 267 266 265 263 263 263 262 260 262 263 263 263 263 264 263 266 262 258 255 255 254 255 257 257 257 256 254 253 249 247 245 244 246 246 245 246 247 245 245 246 247 252
267 265 265 264 263 263 260 260 263 263 263 262 261 258 257 258 259 258 257 257 256 255 255 256 256 255 255 253 251 249 249 255 251 249 246 244 246 246 246 248 251 253 253
267 265 264 261 261 262 264 262 262 261 261 260 261 260 259 258 258 257 256 256 255 256 255 254 252 251 249 248 249 251 253 258 255 253 250 248 249 251 249 252 253 255 255
Wind_Speed
10 11 8 7 5 14 10 10 10 6 8 9 10 10 11 11 11 11 10 10 12 13 8 11 10 7 6 8 5 5 4 2 3 2 3 2 3 4 4 3 3 3 4
7 10 10 11 9 11 14 11 9 8 6 6 6 5 5 12 12 14 13 10 10 9 12 11 11 9 7 7 6 6 6 3 3 4 1 2 3 4 2 1 4 5 4
7 8 8 8 8 5 7 10 12 11 10 11 11 11 12 10 9 10 13 12 10 10 12 10 9 10 10 7 6 6 5 4 4 4 3 2 1 2 1 2 4 5 4
6 6 8 8 9 4 2 3 1 9 14 12 13 13 11 11 14 14 13 14 12 12 10 8 8 9 11 9 8 7 5 5 5 5 3 3 3 3 3 4 4 4 3
5 5 6 6 6 6 4 7 9 10 6 5 13 9 9 12 7 13 16 15 14 13 12 10 10 10 13 10 6 6 5 5 5 5 3 2 3 3 4 3 2 4 2
4 3 5 5 5 5 7 8 11 13 12 13 11 12 13 10 22 23 18 17 13 14 13 11 11 13 15 19 17 13 7 6 5 3 2 3 5 3 3 3 4 3 3
3 1 1 2 4 5 7 9 10 13 16 13 14 14 13 15 24 26 25 13 13 12 11 10 9 6 10 12 17 19 16 14 10 6 8 4 4 3 2 3 3 2 1
1 2 2 4 5 5 9 10 12 11 15 13 18 13 16 14 23 23 24 15 12 9 11 10 9 8 7 10 11 11 9 7 7 8 7 8 6 4 3 2 3 4 1
1 1 1 4 6 6 10 11 11 14 12 15 13 16 18 13 23 20 18 12 12 10 8 9 8 9 12 13 10 10 10 8 12 15 14 14 12 12 8 4 4 2 1
3 2 2 5 7 8 10 12 10 14 14 12 14 14 15 14 20 19 14 9 11 8 8 9 11 9 13 11 7 7 8 6 6 8 7 8 10 10 12 7 4 1 2
5 5 6 7 9 8 11 11 12 14 13 13 12 11 13 11 14 19 17 8 9 8 6 6 6 14 13 13 10 6 6 7 9 6 6 5 6 5 5 6 6 4 2
7 5 7 9 7 7 11 11 11 12 13 12 11 10 8 8 12 15 15 13 13 8 8 6 8 16 15 16 11 15 14 10 5 5 5 4 4 4 4 4 5 4 3
8 7 8 10 8 8 10 11 10 9 9 9 8 9 8 5 5 14 16 15 14 8 6 11 17 15 17 14 15 13 9 5 5 4 4 4 3 2 4 2 3 5 4
9 7 8 8 8 8 7 6 6 7 7 8 8 8 7 5 5 5 6 8 14 10 14 7 11 12 13 11 8 7 6 4 4 4 4 2 2 1 2 3 3 3 2
6 6 6 5 6 6 5 4 2 3 5 8 6 8 9 7 6 9 9 6 6 9 8 5 5 4 4 4 4 4 4 4 4 3 3 2 2 1 2 2 1 2 2
6 4 4 3 3 3 4 3 7 5 7 8 13 9 4 10 15 16 15 15 16 16 4 3 3 4 5 4 4 3 3 3 2 2 2 1 1 1 1 1 1 2 2
5 5 3 3 3 3 2 4 6 2 4 7 13 14 13 15 17 16 16 15 17 8 3 2 3 4 4 4 4 3 3 2 2 2 2 1 2 0 0 2 2 2 2
4 5 4 3 3 3 3 3 3 4 4 1 9 10 14 18 17 15 14 12 6 4 1 2 3 4 3 4 3 3 2 2 2 2 2 2 1 1 2 1 1 1 1
3 2 3 2 2 2 2 3 3 2 2 4 2 4 3 14 14 16 14 3 3 3 2 2 3 3 3 4 3 3 3 3 2 2 2 1 1 2 0 1 2 3 3
3 6 5 4 3 3 4 4 4 3 3 3 3 3 2 5 7 3 3 3 4 2 3 4 3 4 4 4 4 3 2 2 2 2 1 1 1 2 2 2 3 2 2
4 3 6 4 5 4 3 3 3 3 4 4 4 3 9 6 5 3 4 3 4 4 4 5 5 4 4 4 4 3 3 3 2 2 2 2 2 2 3 3 3 3 3
5 5 5 5 4 4 4 5 5 5 4 4 2 2 13 3 4 4 4 4 3 4 4 6 5 5 5 6 5 4 3 4 3 3 3 3 3 3 2 2 3 2 2
4 4 4 3 3 3 2 2 2 3 3 3 3 3 2 4 4 4 5 4 4 5 4 5 6 4 3 3 3 4 5 4 4 4 3 3 2 2 3 3 2 2 2
7 7 6 5 4 4 4 4 2 4 4 4 5 4 4 3 5 6 6 5 5 4 4 4 4 6 5 4 3 3 3 3 3 4 5 3 3 3 3 3 3 4 5
6 5 5 5 5 5 3 4 5 5 5 4 4 4 4 4 6 6 6 6 6 6 5 4 3 6 7 7 6 6 6 7 5 6 4 4 6 5 3 3 5 6 8
6 6 5 5 5 5 6 5 5 4 5 4 5 5 5 6 6 7 7 7 6 5 6 4 4 6 6 5 6 6 6 8 7 9 6 4 4 4 4 6 8 7 8
Wind_Direction
318 321 306 274 254 235 231 200 205 194 190 181 179 169 159 147 137 123 117 123 122 115 109 102 95 66 75 94 46 72 82 91 108 95 94 77 79 53 18 8 13 46 3
307 302 302 317 314 288 218 207 180 160 130 120 105 70 119 133 122 119 115 118 110 111 108 106 111 107 76 81 83 77 73 26 104 113 111 97 85 29 8 20 17 27 9
305 304 310 308 279 280 277 194 160 143 144 138 128 123 136 112 106 116 114 110 107 118 101 103 118 118 108 106 98 85 73 73 60 107 101 60 90 35 244 44 33 18 31
307 312 321 327 322 289 193 59 26 161 153 143 147 160 142 146 137 127 119 113 105 89 102 108 113 120 121 123 112 107 107 96 88 97 99 113 58 12 19 357 2 2 21
313 323 323 325 333 3 44 96 65 48 38 108 122 101 114 113 105 122 109 105 106 103 96 95 80 78 86 91 100 103 114 105 101 106 87 79 55 40 25 348 348 317 334
311 324 323 346 12 28 52 60 89 80 56 73 61 82 88 84 107 107 107 103 102 102 100 92 98 107 104 98 96 95 95 98 120 92 83 88 70 45 357 12 356 16 343
304 301 53 66 57 59 75 82 83 98 94 72 76 80 77 95 102 103 100 98 106 106 107 98 86 71 97 98 93 86 74 83 90 107 114 104 102 42 337 19 16 356 305
332 304 113 111 95 96 98 99 99 93 96 108 100 90 90 82 96 99 97 96 92 87 98 105 111 107 107 118 102 100 93 80 75 84 93 93 86 79 40 71 16 340 332
8 334 69 116 108 113 106 104 106 102 102 98 98 97 98 105 107 106 100 98 100 90 84 94 106 109 128 125 123 116 105 82 96 90 88 87 80 61 53 55 32 39 18
48 61 86 101 106 111 110 109 106 104 103 98 97 99 107 113 112 114 104 105 103 104 100 97 100 112 132 144 127 126 108 117 107 88 86 72 58 47 51 48 40 35 36
65 79 95 97 101 109 105 101 105 102 103 100 98 102 98 108 121 125 122 119 127 127 128 124 119 121 117 109 92 95 116 109 104 92 82 64 58 50 45 41 29 37 21
71 75 82 83 89 91 97 92 93 100 99 102 105 98 87 96 117 127 132 133 132 129 140 135 128 124 113 102 98 99 99 93 82 82 73 69 66 51 39 45 36 21 7
63 66 76 75 73 81 90 96 94 99 110 109 112 108 103 81 98 129 137 137 137 127 125 134 132 126 110 95 97 96 86 84 94 91 106 95 59 37 38 13 357 24 17
67 47 50 66 72 67 73 79 96 105 112 118 130 118 111 117 111 117 124 130 133 130 134 111 112 106 99 88 75 70 74 77 97 101 97 92 80 38 26 352 3 10 56
74 63 55 51 56 71 62 71 55 38 137 140 139 140 147 149 155 142 145 141 136 137 116 91 95 88 101 98 84 80 85 79 82 76 98 99 81 76 58 344 305 27 99
111 101 90 98 76 62 76 94 91 119 126 128 138 143 92 134 156 156 154 149 144 133 56 107 123 142 137 135 130 101 78 84 92 118 103 120 130 91 112 269 71 69 45
127 134 119 105 112 130 107 118 128 102 125 155 156 152 145 161 162 157 155 154 152 130 96 141 145 147 139 133 128 119 127 138 128 102 156 129 89 129 46 30 9 14 314
132 133 134 143 139 134 139 141 112 143 164 141 144 151 164 163 163 161 164 147 141 52 121 154 148 135 124 130 134 118 128 150 113 130 124 156 147 117 48 0 13 301 262
141 136 121 109 106 118 108 78 91 136 139 115 50 95 113 157 163 173 146 132 143 153 152 125 119 125 126 125 122 118 136 156 162 165 175 149 146 136 281 290 294 265 267
173 160 154 160 156 159 157 157 158 150 136 144 147 159 145 136 171 158 129 137 138 127 130 126 120 119 134 133 129 133 126 160 167 174 191 188 208 186 208 238 236 266 245
168 150 161 159 179 178 154 149 143 151 176 183 188 186 184 170 162 137 139 133 145 149 143 137 142 140 138 135 139 155 183 174 176 198 201 205 172 233 228 253 270 255 245
176 175 177 186 160 170 187 178 182 182 175 170 186 221 203 102 134 150 154 151 136 123 136 142 151 159 165 169 169 161 173 193 201 200 204 202 201 216 235 238 258 258 276
150 155 161 175 169 154 160 171 170 173 164 165 161 181 203 164 157 147 144 133 134 132 140 145 148 151 158 155 161 170 181 203 205 174 194 216 226 232 206 238 244 287 251
175 181 184 190 174 186 184 187 174 175 185 186 178 175 174 148 149 145 138 139 135 138 146 145 149 154 156 164 183 193 198 205 186 198 195 198 239 240 222 228 229 238 266
162 166 174 173 178 189 174 185 195 194 183 174 167 157 158 134 131 135 141 145 140 143 145 141 141 155 167 177 191 207 216 230 207 187 188 191 230 241 237 237 264 274 272
161 162 167 162 171 178 188 185 189 177 177 174 168 157 148 144 142 143 145 143 143 139 140 147 159 169 182 201 215 225 228 230 221 211 192 188 218 246 222 246 263 264 266